Miscellaneous Local Product
Issued by NWS Hastings, NE

Home | Current Version | Previous Version | Text Only | Print | Product List | Glossary Off
Versions: 1 2 3 4 5 6 7 8 9 10 11 12 13 14 15 16 17 18 19 20 21 22 23 24 25 26 27 28 29 30 31 32 33 34 35 36 37 38 39 40 41 42 43 44 45 46 47 48 49 50

000
AXUS43 KGID 230402
MISGRI

GID CWA HOURLY WEATHER ROUNDUP
NATIONAL WEATHER SERVICE HASTINGS NE
1100 PM CDT THU JUN 22 2017

NOTE: "FAIR" INDICATES FEW OR NO CLOUDS BELOW 12,000 FEET WITH NO
SIGNIFICANT WEATHER AND/OR OBSTRUCTIONS TO VISIBILITY.

...SOUTH CENTRAL NEBRASKA...

CITY           SKY/WX    TMP DP  RH WIND       PRES   REMARKS
GRAND ISLAND   CLEAR     70  63  78 N14       29.85R
HASTINGS       MOCLDY    72  60  66 N17       29.86R
KEARNEY        CLOUDY    70  55  60 N17       29.88R
ORD            CLOUDY    67  52  58 N9        29.89R
YORK           MOCLDY    73  63  68 N20G29    29.80R
AURORA         CLEAR     72  62  71 N16G24    29.84R
LEXINGTON      PTCLDY    69  53  57 N13       29.91R
HOLDREGE       PTCLDY    70  56  62 N14G24    29.88R
HEBRON         PTCLDY    78  65  63 N14G23    29.76R

...NEBRASKA PANHANDLE...

CITY           SKY/WX    TMP DP  RH WIND       PRES   REMARKS
CHADRON        CLOUDY    64  46  52 CALM      30.02R
ALLIANCE       CLOUDY    65  46  50 NE14      30.00R
SCOTTSBLUFF    CLOUDY    70  47  43 NE13      30.01R
SIDNEY         CLOUDY    65  53  65 E8        30.01R

...WESTERN AND NORTH CENTRAL NEBRASKA...

CITY           SKY/WX    TMP DP  RH WIND       PRES   REMARKS
VALENTINE      CLEAR     66  44  45 NE5       29.94S
AINSWORTH      CLEAR     61  50  67 NE7       29.94F
ONEILL         CLEAR     63  53  69 N8        29.92R
BROKEN BOW     CLOUDY    65  52  62 N14       29.91R
IMPERIAL       CLOUDY    69  52  54 NE10      29.94R
NORTH PLATTE   CLEAR     67  48  50 N8        29.93R
MCCOOK         CLOUDY    72  58  61 N16       29.88R

...EASTERN NEBRASKA...

CITY           SKY/WX    TMP DP  RH WIND       PRES   REMARKS
NORFOLK        MOCLDY    70  62  76 N14       29.85R
SO SIOUX CITY    N/A    N/A N/A N/A MISG      29.81R
TEKAMAH        CLOUDY    73  62  68 N22       29.78R
COLUMBUS       CLEAR     72  63  73 N20G26    29.81R
ALBION         PTCLDY    71  55  58 N15       29.86R
OMAHA EPPLEY   MOCLDY    78  66  66 N16       29.73R
OFFUTT AFB     CLOUDY    80  66  62 N14G22    29.71R THUNDER
MILLARD        CLOUDY    78  68  69 NW7       29.75R
LINCOLN        CLOUDY    77  66  68 N21       29.76R
NEBRASKA CITY  TSTM      78  74  89 W12       29.73R
BEATRICE       CLOUDY    82  68  62 NE17G26   29.72R
FALLS CITY     PTCLDY    77  72  84 SE5       29.67R THUNDER

...NORTHERN KANSAS...

CITY           SKY/WX    TMP DP  RH WIND       PRES   REMARKS
GOODLAND       PTCLDY    72  58  61 NE17      29.91R
HILL CITY      CLOUDY    78  62  57 NE17G25   29.83R
NORTON         CLEAR     73  55  53 N12G18    29.85
PHILLIPSBURG   CLEAR     77  61  57 N14G23    29.82R
SMITH CENTER   CLOUDY    75  61  60 N16G28    29.79R
HAYS           TSTM      80  63  55 S21G31    29.87R
RUSSELL        CLOUDY    81  65  58 NW15G26   29.77R
CONCORDIA      CLOUDY    81  68  64 N14G20    29.71R
SALINA         PTCLDY    83  67  58 S10       29.66R
TOPEKA         CLEAR     81  73  76 S5        29.66F



USA.gov is the U.S. government's official web portal to all federal, state and local government web resources and services.